weather.gov     
National Weather Service

Terminal Aerodrome Forecast
NWS Homepage
This page is being discontinued on March 12, 2014.
The same data is available at this site. Please update your bookmarks.
Thank you, and we apologize for the inconvenience.
Please send an email to SR-SRH.Webmaster@noaa.gov with any concerns.


Current Version
Previous Version:    01  02  03  04  05  06  07  08  09  10  11  12  13  14  15  16  17  18  19  20  21  22  23  
[Printable]
436
FTUS45 KTFX 281100
TAFBZN
TAF
KBZN 281120Z 2812/2912 15005KT P6SM SKC
     FM282000 28007KT P6SM SCT120
     FM290100 VRB05KT P6SM VCSH SCT070 BKN100 PROB30 2903/2907 -SHRA
      OVC060
     FM290800 15005KT P6SM SCT120=


U.S. Dept. of Commerce
NOAA National Weather Service
1325 East West Highway
Silver Spring, MD 20910
E-mail: w-nws.webmaster@noaa.gov
Page last modified: May 16, 2007
NATIONAL WEATHER SERVICE: for Safety, for Work, for Fun - FOR LIFE